Regional Weather Roundup
Issued by NWS

Home | Current Version | Previous Version | Graphics & Text | Print | Product List | Glossary Off
Versions: 1 2 3 4 5 6 7 8 9 10 11 12 13 14 15 16 17 18 19 20 21 22 23 24 25 26 27 28 29 30 31 32 33 34 35 36 37 38 39 40 41 42 43 44 45 46 47 48 49 50

000
ASUS43 KMKX 011411
RWRWI

WISCONSIN REGIONAL WEATHER ROUNDUP
NATIONAL WEATHER SERVICE MILWAUKEE/SULLIVAN WI
800 AM CST WED MAR 01 2017

NOTE: "FAIR" INDICATES FEW OR NO CLOUDS BELOW 12,000 FEET WITH NO
SIGNIFICANT WEATHER AND/OR OBSTRUCTIONS TO VISIBILITY.

WIZ001-002-006>008-014>016-023>028-011500-
NORTHWEST WISCONSIN

CITY           SKY/WX    TMP DP  RH WIND       PRES   REMARKS
SUPERIOR ARPT  CLOUDY    22  15  75 N3        29.88S
ASHLAND        CLOUDY    22  19  89 N13G21    29.85R WCI  10
HAYWARD        CLOUDY    22  18  85 N21G30    29.78R WCI   6
SIREN          CLOUDY    24  21  88 NE10G24   29.81S WCI  14
CUMBERLAND     CLOUDY    25  21  86 N14G22    29.75S WCI  13
RICE LAKE      CLOUDY    26  22  85 N13G25    29.76S WCI  15
CHETEK         LGT SNOW  25  23  91 N9G22     29.75R VSB 1   WCI  16
LADYSMITH      LGT SNOW  26  23  89 N15G22    29.73R VSB 3/4 WCI  13
EAU CLAIRE     SNOW      26  24  92 N20G28    29.71R VSB 1/4 WCI  12
MENOMONIE      LGT SNOW  27  25  92 NW15      29.73S VSB 3/4 WCI  16
NEW RICHMOND   CLOUDY    26  21  83 N13G21    29.78R WCI  15
OSCEOLA        CLOUDY    26  22  84 N13       29.83R WCI  15
$$

WIZ003>005-009-010-017-018-011500-
NORTH CENTRAL WISCONSIN

CITY           SKY/WX    TMP DP  RH WIND       PRES   REMARKS
MANITOWISH WTR LGT SNOW  20  19  97 N12G20    29.69S WCI   8
ARBOR VITAE    LGT SNOW  22  18  85 N14G21      N/A  WCI   9
WOODRUFF       LGT SNOW  22  18  85 N14G21      N/A  WCI   9
RHINELANDER    LGT SNOW  22  19  89 N14G20    29.64R VSB 3/4 WCI   9
EAGLE RIVER    LGT SNOW  20  15  81 N14G20    29.65R WCI   7
LAND O LAKES   LGT SNOW  20  16  86 N14G22    29.68S WCI   7
PHILLIPS       LGT SNOW  22  20  93 N12G22    29.68R VSB 1   WCI  10
TOMAHAWK       LGT SNOW  22  19  86 N8G20     29.65R VSB 1   WCI  13
MEDFORD        LGT SNOW  24  21  89 N20       29.61S VSB 3/4 WCI   9
MERRILL        NOT AVBL
$$

WIZ029-030-035-036-043>047-011500-
CENTRAL WISCONSIN

CITY           SKY/WX    TMP DP  RH WIND       PRES   REMARKS
WAUSAU         LGT SNOW  26  22  84 N10G21    29.58S FOG     WCI  16
MOSINEE        LGT SNOW  27  25  93 N17       29.59S WCI  14
MARSHFIELD     HVY SNOW  26  23  88 N17       29.60R VSB 1/4 WCI  13
STEVENS POINT  MIX PCPN  27  25  93 N10       29.58S WCI  17
WAUPACA        LGT SNOW  32  31  93 N10G16    29.56S WCI  24
WAUTOMA        NOT AVBL
WISC RAPIDS    LGT SNOW  29  27  92 N15       29.59F FOG     WCI  18
CAMP DOUGLAS   LGT SNOW  32  32 100 NW13      29.60R FOG     WCI  22
$$

WIZ011>013-019>022-031-037>040-048>050-011500-
NORTHEAST WISCONSIN

CITY           SKY/WX    TMP DP  RH WIND       PRES   REMARKS
ANTIGO         LGT SNOW  24  21  90 N21G26    29.57S WCI   9
SHAWANO        LGT SNOW  31  27  85 N21G29    29.56S WCI  18
OCONTO         CLOUDY    28  24  87 N13G24    29.55R WCI  17
STURGEON BAY   LGT SNOW  28  26  92 N23G32    29.52S FOG     WCI  14
GREEN BAY      FLURRIES  30  27  88 N16       29.54R WCI  19
MANITOWOC      FLURRIES  31  29  92 N20       29.48S WCI  19
APPLETON       LGT SNOW  28  28 100 N17G29    29.52R WCI  16
CLINTONVILLE   SNOW      30  28  93 N12G20    29.56R VSB 1/2 WCI  21
OSHKOSH        LGT SNOW  31  28  89 N14       29.53R VSB 3/4 WCI  21
$$

WIZ032>034-041-042-053>061-011500-
SOUTHWEST WISCONSIN

CITY           SKY/WX    TMP DP  RH WIND       PRES   REMARKS
LA CROSSE      SNOW      31  29  92 N14       29.66R VSB 1/4 WCI  21
SPARTA         LGT SNOW  31  30  99 NW9       29.65R VSB 3/4 WCI  22
VIROQUA        CLOUDY    32  32 100 NW17      29.60R VSB 1/2 WCI  20
BOSCOBEL       LGT SNOW  34  32  92 NW6       29.63R FOG     WCI  29
PRAIRIE DU CHI LGT RAIN  33  33  97 NW8       29.63R WCI  27
PLATTEVILLE    CLOUDY    35  35 100 NW13      29.60R WCI  26
$$

WIZ056-057-062-063-064-067-068-011500-
SOUTH CENTRAL WISCONSIN

CITY           SKY/WX    TMP DP  RH WIND       PRES   REMARKS
REEDSBURG      LGT SNOW  32  32 100 N6        29.56R WCI  26
BARABOO/DELLS  LGT SNOW  32  32 100 NW7       29.55S WCI  26
LONE ROCK      LGT SNOW  34  31  88 NW7       29.58R FOG     WCI  28
MINERAL POINT  LGT SNOW  34  34 100 NW7       29.55R WCI  28
MADISON        LGT SNOW  32  32 100 NW8       29.53S VSB 3/4 WCI  25
MIDDLETON      CLOUDY    34  34 100 N7        29.54R VSB 1   WCI  28
WATERTOWN      LGT SNOW  32  32 100 N9        29.51R WCI  24
MONROE         LGT SNOW  32  32 100 NW5       29.53R WCI  27
JANESVILLE     CLOUDY    36  36 100 NW8       29.51R FOG     WCI  29
$$

WIZ051-052-058>065-066-070>072-011500-
SOUTHEAST WISCONSIN

CITY           SKY/WX    TMP DP  RH WIND       PRES   REMARKS
MILWAUKEE      DRIZZLE   37  34  89 N12       29.46F WCI  29
WAUKESHA       CLOUDY    34  34 100 N6        29.49R FOG     WCI  29
MILWAUKEE/TIMM DRIZZLE   36  32  87 N7        29.48S WCI  30
RACINE         CLOUDY    36  34  92 N17G25    29.46F WCI  26
KENOSHA        CLOUDY    37  35  92 N13G20    29.46F FOG     WCI  29
FOND DU LAC    HVY SNOW  32  28  85 N13       29.53R VSB 1/4 WCI  22
SHEBOYGAN      LGT SNOW  33  30  88 N10       29.48R FOG     WCI  25
WEST BEND      LGT RAIN  34  34 100 NW8       29.49R WCI  27
JUNEAU         LGT SNOW  32  31  97 MISG      29.53R VSB 3/4
$$

LSZ147-162-011500-
LAKE SUPERIOR

STATION/POSITION TIME  TEMP    WIND        PRES    WAVE
                       AIR SEA DIR/SP/G            HT/PER
                 (UTC) (F)     (DEG/KT/KT) (MB)    (FT/S)
DEVILS ISLAND    1400   20      40/ 21/ 23 1013.0R
PORT WING        1340   23      30/ 15/ 20 1011.9R
SAXON HARBOR     1349   26      30/ 20/ 26 1010.2R
$$

LMZ867-665-643>646-011500-
LAKE MICHIGAN

STATION/POSITION TIME  TEMP    WIND        PRES    WAVE
                       AIR SEA DIR/SP/G            HT/PER
                 (UTC) (F)     (DEG/KT/KT) (MB)    (FT/S)
CHAMBERS ISLAND  1340   28     340/ 23/ 28 1000.3S
NORTHPORT PIER   1340   28     350/ 25/ 31 1000.7S
SISTER BAY       1350   27     360/ 25/ 34   N/A
KEWAUNEE LAKESHO 1348   29     360/ 11/ 19  998.5F
SHEBOYGAN LAKESH 1400   33     350/ 23/ 25  998.5R
PORT WASHINGTON  1400   35     330/  5/ 17  999.3
MILWAUKEE LAKESH 1350   36     360/ 16/ 19   N/A
KENOSHA   LAKESH 1400   36     360/ 18/ 22  998.0
$$

TC  - TEMPERATURE IN CELSIUS
VSB - VISIBILITY IN STATUTE MILES
WCI - WIND CHILL INDEX
HX  - HEAT INDEX




USA.gov is the U.S. government's official web portal to all federal, state and local government web resources and services.